Regional Weather Roundup
Issued by NWS

Home | Current Version | Previous Version | Graphics & Text | Print | Product List | Glossary On
Versions: 1 2 3 4 5 6 7 8 9 10 11 12 13 14 15 16 17 18 19 20 21 22 23 24 25 26 27 28 29 30 31 32 33 34 35 36 37 38 39 40 41 42 43 44 45 46 47 48 49 50
000
ASUS43 KFSD 220002
RWRSD

WEATHER ROUNDUP FOR SOUTH DAKOTA
NATIONAL WEATHER SERVICE SIOUX FALLS SD
700 PM CDT SUN MAY 21 2017

NOTE: "FAIR" INDICATES FEW OR NO CLOUDS BELOW 12,000 FEET WITH NO
SIGNIFICANT WEATHER AND/OR OBSTRUCTIONS TO VISIBILITY.


SDZ001>005-009-010-012>017-220100-
NORTHWEST AND NORTH CENTRAL SOUTH DAKOTA

CITY           SKY/WX    TMP DP  RH WIND       PRES   REMARKS
BUFFALO          N/A     59  43  55 N6        29.98F
FAITH            N/A     61  42  49 W18       30.00S
MOBRIDGE       MOSUNNY   70  29  21 NW10      29.88S
$$

SDZ012>016-024>037-041>051-057-063-072>074-220100-
SOUTHWEST AND SOUTH CENTRAL SOUTH DAKOTA

CITY           SKY/WX    TMP DP  RH WIND       PRES   REMARKS
RAPID CTY ARPT LGT RAIN  51  44  77 W9        30.09F
PIERRE         LGT RAIN  64  37  36 NW10G23   29.94S
CUSTER         LGT RAIN  43  36  76 VRB5G21   30.14R
ELLSWORTH AFB  CLOUDY    52  46  82 NW13      30.08
PHILIP         CLOUDY    65  41  41 W18G24    30.01R
PINE RIDGE     LGT RAIN  56  44  64 NW17G30   30.10R
SPEARFISH      RAIN      50  43  76 N22       30.15R
WINNER         FAIR      67  37  33 NW8       29.99S
$$

SDZ004>011-016>023-039-040-220100-
NORTHEAST SOUTH DAKOTA

CITY           SKY/WX    TMP DP  RH WIND       PRES   REMARKS
ABERDEEN       MOSUNNY   63  37  38 CALM      29.92F
WATERTOWN      MOSUNNY   54  42  64 NW12      29.94S
BROOKINGS      SUNNY     56  43  61 N10       29.96S
SISSETON         N/A     55  42  61 N16       29.91F
$$

SDZ017-020-022-023-036>040-048>070-220100-
SOUTHEAST SOUTH DAKOTA

CITY           SKY/WX    TMP DP  RH WIND       PRES   REMARKS
SIOUX FALLS    MOSUNNY   60  44  55 W12       29.98F
HURON          SUNNY     68  39  34 N5        29.92F
MITCHELL       PTSUNNY   66  41  40 S9        29.96F
YANKTON        SUNNY     63  42  46 S7        30.01F
$$

ABBREVIATIONS USED IN REMARKS
   TC - TEMPERATURE IN CELSIUS
  WCI - WIND CHILL INDEX
   HX - HEAT INDEX
  VSB - VISIBILITY





USA.gov is the U.S. government's official web portal to all federal, state and local government web resources and services.